When you browse on this site, cookies collect data to enhance your experience and personalize the content and advertising you see.
Visit our Privacy Policy to learn more. By continuing to use the site, you agree to this use of cookies and data.
  • In Latvia
  • List of Countries
  • For 7 days
  • Water Temperature
  • Satellite Maps
  • Weather Map
  • Weather Widgets
  • user-avatar
    Login

    Hourly Weather Quito

    Today, 24 May, Friday

    Time Temperature Precipitation Wind Pressure Humidity
    00:00 +16°C° 0 mm 1 mps 623 mmHg 66%
    01:00 +14°C° 0 mm 0 mps 623 mmHg 74%
    02:00 +15°C° 0 mm 1 mps 622 mmHg 77%
    03:00 +14°C° 0 mm 1 mps 622 mmHg 79%
    04:00 +14°C° 0 mm 1 mps 622 mmHg 82%
    05:00 +14°C° 0 mm 1 mps 622 mmHg 80%
    06:00 +15°C° 0 mm 1 mps 623 mmHg 79%
    07:00 +16°C° 0 mm 1 mps 624 mmHg 74%
    08:00 +19°C° 0 mm 2 mps 625 mmHg 64%
    09:00 +21°C° 0 mm 3 mps 625 mmHg 55%
    10:00 +25°C° 0 mm 4 mps 626 mmHg 46%
    11:00 +25°C° 0 mm 4 mps 626 mmHg 43%
    12:00 +26°C° 0 mm 4 mps 625 mmHg 39%
    13:00 +28°C° 0 mm 3 mps 625 mmHg 37%
    14:00 +28°C° 0 mm 3 mps 625 mmHg 38%
    15:00 +27°C° 0 mm 3 mps 625 mmHg 40%
    16:00 +27°C° 0 mm 2 mps 624 mmHg 41%
    17:00 +25°C° 0 mm 2 mps 624 mmHg 47%
    18:00 +22°C° 0 mm 1 mps 624 mmHg 53%
    19:00 +20°C° 0 mm 1 mps 623 mmHg 60%
    20:00 +20°C° 0 mm 1 mps 623 mmHg 59%
    21:00 +20°C° 0 mm 1 mps 624 mmHg 58%
    22:00 +20°C° 0 mm 1 mps 624 mmHg 57%
    23:00 +20°C° 0 mm 1 mps 624 mmHg 57%

    Tomorrow, 25 May, Saturday

    Time Temperature Precipitation Wind Pressure Humidity
    00:00 +20°C° 0 mm 1 mps 624 mmHg 56%
    01:00 +20°C° 0 mm 1 mps 624 mmHg 56%
    02:00 +19°C° 0 mm 1 mps 624 mmHg 59%
    03:00 +18°C° 0 mm 1 mps 623 mmHg 62%
    04:00 +16°C° 0 mm 1 mps 623 mmHg 65%
    05:00 +16°C° 0 mm 2 mps 623 mmHg 65%
    06:00 +15°C° 0 mm 2 mps 624 mmHg 65%
    07:00 +15°C° 0 mm 2 mps 624 mmHg 65%
    08:00 +17°C° 0 mm 2 mps 625 mmHg 56%
    09:00 +20°C° 0 mm 3 mps 625 mmHg 46%
    10:00 +22°C° 0 mm 4 mps 626 mmHg 37%
    11:00 +23°C° 0 mm 4 mps 626 mmHg 35%
    12:00 +25°C° 0 mm 4 mps 625 mmHg 32%
    13:00 +26°C° 0 mm 4 mps 625 mmHg 30%
    14:00 +26°C° 0 mm 3 mps 625 mmHg 31%
    15:00 +26°C° 0 mm 3 mps 624 mmHg 32%
    16:00 +26°C° 0 mm 2 mps 624 mmHg 32%
    17:00 +23°C° 0 mm 2 mps 623 mmHg 38%
    18:00 +21°C° 0 mm 1 mps 623 mmHg 44%
    19:00 +16°C° 0 mm 0 mps 623 mmHg 49%
    20:00 +16°C° 0 mm 1 mps 623 mmHg 50%
    21:00 +16°C° 0 mm 1 mps 623 mmHg 52%
    22:00 +15°C° 0 mm 1 mps 623 mmHg 53%
    23:00 +14°C° 0 mm 1 mps 623 mmHg 53%

    Day after tomorrow, 26 May, Sunday

    Time Temperature Precipitation Wind Pressure Humidity
    00:00 +14°C° 0 mm 1 mps 623 mmHg 53%
    01:00 +13°C° 0 mm 1 mps 623 mmHg 53%
    02:00 +12°C° 0 mm 1 mps 622 mmHg 55%
    03:00 +12°C° 0 mm 1 mps 622 mmHg 57%
    04:00 +12°C° 0 mm 1 mps 622 mmHg 58%
    05:00 +12°C° 0 mm 1 mps 622 mmHg 59%
    06:00 +12°C° 0 mm 1 mps 622 mmHg 60%
    07:00 +12°C° 0 mm 1 mps 623 mmHg 61%
    08:00 +15°C° 0 mm 2 mps 624 mmHg 54%
    09:00 +18°C° 0 mm 3 mps 625 mmHg 47%
    10:00 +21°C° 0 mm 4 mps 626 mmHg 39%
    11:00 +22°C° 0 mm 3 mps 625 mmHg 36%
    12:00 +24°C° 0 mm 3 mps 625 mmHg 33%
    13:00 +25°C° 0 mm 3 mps 625 mmHg 31%
    14:00 +25°C° 0 mm 2 mps 624 mmHg 31%
    15:00 +25°C° 0 mm 2 mps 624 mmHg 32%
    16:00 +24°C° 0 mm 2 mps 623 mmHg 33%
    17:00 +22°C° 0 mm 1 mps 623 mmHg 39%
    18:00 +19°C° 0 mm 1 mps 622 mmHg 44%
    19:00 +15°C° 0 mm 0 mps 622 mmHg 50%
    20:00 +14°C° 0 mm 0 mps 622 mmHg 51%
    21:00 +14°C° 0 mm 0 mps 622 mmHg 51%
    22:00 +13°C° 0 mm 0 mps 623 mmHg 52%
    23:00 +14°C° 0 mm 1 mps 622 mmHg 54%

    27 May, Monday

    Time Temperature Precipitation Wind Pressure Humidity
    00:00 +13°C° 0 mm 1 mps 622 mmHg 55%
    01:00 +13°C° 0 mm 1 mps 622 mmHg 57%
    02:00 +12°C° 0 mm 1 mps 622 mmHg 59%
    03:00 +12°C° 0 mm 1 mps 621 mmHg 62%
    04:00 +11°C° 0 mm 1 mps 621 mmHg 64%
    05:00 +12°C° 0 mm 1 mps 622 mmHg 65%
    06:00 +12°C° 0 mm 1 mps 622 mmHg 66%
    07:00 +12°C° 0 mm 1 mps 623 mmHg 67%
    08:00 +15°C° 0 mm 2 mps 623 mmHg 58%
    09:00 +18°C° 0 mm 3 mps 624 mmHg 49%
    10:00 +21°C° 0 mm 3 mps 625 mmHg 40%
    11:00 +22°C° 0 mm 3 mps 625 mmHg 37%
    12:00 +24°C° 0 mm 2 mps 624 mmHg 34%
    13:00 +26°C° 0 mm 2 mps 624 mmHg 31%
    14:00 +25°C° 0 mm 1 mps 624 mmHg 31%
    15:00 +25°C° 0 mm 1 mps 623 mmHg 31%
    16:00 +25°C° 0 mm 1 mps 622 mmHg 32%
    17:00 +22°C° 0 mm 1 mps 622 mmHg 37%
    18:00 +20°C° 0 mm 1 mps 622 mmHg 42%
    19:00 +16°C° 0 mm 1 mps 621 mmHg 47%
    20:00 +16°C° 0 mm 1 mps 622 mmHg 47%
    21:00 +15°C° 0 mm 1 mps 622 mmHg 47%
    22:00 +15°C° 0 mm 1 mps 622 mmHg 47%
    23:00 +14°C° 0 mm 0 mps 622 mmHg 47%

    28 May, Tuesday

    Time Temperature Precipitation Wind Pressure Humidity
    00:00 +13°C° 0 mm 0 mps 622 mmHg 48%
    01:00 +13°C° 0 mm 0 mps 622 mmHg 48%
    02:00 +13°C° 0 mm 1 mps 621 mmHg 50%
    03:00 +13°C° 0 mm 1 mps 621 mmHg 53%
    04:00 +12°C° 0 mm 1 mps 621 mmHg 55%
    05:00 +12°C° 0 mm 1 mps 621 mmHg 56%
    06:00 +13°C° 0 mm 1 mps 622 mmHg 58%
    07:00 +13°C° 0 mm 1 mps 622 mmHg 59%
    08:00 +16°C° 0 mm 2 mps 623 mmHg 54%
    09:00 +19°C° 0 mm 2 mps 624 mmHg 48%
    10:00 +22°C° 0 mm 3 mps 625 mmHg 42%
    11:00 +24°C° 0 mm 2 mps 625 mmHg 39%
    12:00 +25°C° 0 mm 2 mps 624 mmHg 35%
    13:00 +27°C° 0 mm 1 mps 624 mmHg 32%
    14:00 +26°C° 0 mm 1 mps 623 mmHg 33%
    15:00 +26°C° 0 mm 1 mps 623 mmHg 33%
    16:00 +25°C° 0 mm 1 mps 622 mmHg 34%
    17:00 +23°C° 0 mm 1 mps 622 mmHg 39%
    18:00 +20°C° 0 mm 1 mps 622 mmHg 45%
    19:00 +18°C° 0 mm 1 mps 621 mmHg 50%
    20:00 +16°C° 0 mm 1 mps 622 mmHg 51%
    21:00 +15°C° 0 mm 0 mps 622 mmHg 51%
    22:00 +14°C° 0 mm 0 mps 622 mmHg 51%
    23:00 +14°C° 0 mm 0 mps 622 mmHg 51%

    29 May, Wednesday

    Time Temperature Precipitation Wind Pressure Humidity
    00:00 +14°C° 0 mm 0 mps 621 mmHg 51%
    01:00 +15°C° 0 mm 1 mps 621 mmHg 50%
    02:00 +15°C° 0 mm 1 mps 621 mmHg 51%
    03:00 +14°C° 0 mm 1 mps 621 mmHg 52%
    04:00 +14°C° 0 mm 1 mps 621 mmHg 53%
    05:00 +13°C° 0 mm 0 mps 621 mmHg 54%
    06:00 +14°C° 0 mm 0 mps 622 mmHg 55%
    07:00 +14°C° 0 mm 0 mps 623 mmHg 56%
    08:00 +19°C° 0 mm 1 mps 624 mmHg 50%
    09:00 +22°C° 0 mm 1 mps 624 mmHg 44%
    10:00 +25°C° 0 mm 1 mps 625 mmHg 38%
    11:00 +26°C° 0 mm 1 mps 625 mmHg 36%
    12:00 +27°C° 0 mm 1 mps 625 mmHg 33%
    13:00 +28°C° 0 mm 1 mps 624 mmHg 31%
    14:00 +27°C° 0 mm 1 mps 624 mmHg 33%
    15:00 +27°C° 0 mm 1 mps 623 mmHg 35%
    16:00 +26°C° 0 mm 1 mps 622 mmHg 36%
    17:00 +24°C° 0 mm 1 mps 622 mmHg 40%
    18:00 +22°C° 0 mm 1 mps 622 mmHg 43%
    19:00 +21°C° 0 mm 1 mps 622 mmHg 47%
    20:00 +20°C° 0 mm 1 mps 622 mmHg 48%
    21:00 +19°C° 0 mm 1 mps 622 mmHg 50%
    22:00 +18°C° 0 mm 1 mps 622 mmHg 52%
    23:00 +18°C° 0 mm 1 mps 622 mmHg 51%
    Show more